[[{"header":{"parameterUnit":"m.s-1","parameterCategory":1,"la1":30.2991,"la2":30.254,"lo1":-89.0895,"lo2":-89.0444,"dy":0.0017,"dx":0.0017,"nx":28,"ny":28,"refTime":"2024-05-15T09:00:00:Z","depth":0,"parameterNumber":2,"parameterNumberName":"U-component_of_WINDS"},"data":[0,0,0,0,0,0,0,0,0,0,0,0,0,0,0,0,0,0,0,0,0,0,0,0,0,0,0,0,0,0,0,0,0,0,0,0,0,0,0,0,0,0,0,0,0,0,0,0,0,0,0,0,0,0,0,0,0,0,3.4802,3.4803,0,3.489,3.4891,3.4892,3.4804,3.4801,3.4797,3.4794,3.4891,3.4896,3.4902,0,0,0,0,0,0,0,0,0,0,0,0,0,3.4563,3.4568,3.4802,3.4803,3.4804,3.489,3.4891,3.4893,3.4805,3.4801,3.4796,3.4792,3.4889,3.4896,3.4902,0,0,0,0,0,0,0,0,0,0,0,0,0,3.4661,3.4569,3.4801,3.477,3.4768,3.489,3.4891,3.4893,3.4806,3.48,3.4795,3.479,3.4886,3.4895,3.4903,3.5062,0,0,3.493,3.4934,0,0,0,0,0,0,0,0,3.4655,3.467,3.4774,3.4773,3.4771,3.4831,3.4842,3.495,3.4807,3.4792,3.4794,3.4788,3.4875,3.4885,3.4913,3.5066,3.507,3.4931,3.4936,3.494,3.4942,0,0,0,0,0,0,0,3.4649,3.4665,3.4837,3.4775,3.4774,3.4754,3.4762,3.4862,3.4862,3.4793,3.4786,3.4798,3.4873,3.4905,3.4914,3.5072,3.4931,3.4938,3.4944,3.4947,3.5362,3.5367,0,0,0,0,0,0,3.4644,3.466,3.4834,3.4839,3.4699,3.4763,3.4772,3.4817,3.4861,3.4862,3.4802,3.4793,3.4892,3.4904,3.4918,3.5106,3.494,3.4948,3.4953,3.5356,3.5363,3.537,0,0,0,0,0,0,3.464,3.4661,3.483,3.4748,3.4768,3.4772,3.4824,3.4821,3.4852,3.4868,3.4868,3.4834,3.4889,3.4905,3.5027,3.5109,3.4952,3.496,3.5349,3.5358,3.5366,3.5485,0,0,0,0,0,0,3.4633,3.466,3.4718,3.475,3.4773,3.4936,3.4829,3.4827,3.4867,3.4856,3.4897,3.4899,3.4886,3.5014,3.5035,3.5118,3.4967,3.5342,3.5353,3.5364,3.5474,3.5497,3.5517,0,0,0,0,0,3.4625,3.4749,3.4721,3.4743,3.4846,3.4941,3.4954,3.4935,3.4874,3.4934,3.4944,3.4898,3.5096,3.5027,3.505,3.5137,3.5337,3.535,3.5363,3.5465,3.5493,3.5516,0,0,0,0,0,0,3.4728,3.4752,3.4722,3.486,3.4899,3.4926,3.5001,3.4965,3.5023,3.5011,3.4987,3.4997,3.5125,3.5143,3.5066,3.5293,3.5207,3.5225,3.5277,3.5303,3.5324,3.5317,3.4974,0,0,0,0,0,3.4766,3.4839,3.4858,3.4978,3.4999,3.4997,3.5037,3.5019,3.5059,3.5076,3.5095,3.5138,3.5209,3.5257,3.5325,3.5477,3.5485,3.5548,3.5569,3.5587,3.5603,3.5686,3.5714,3.5412,3.5412,3.5412,0,0,3.4847,3.4869,3.4917,3.4999,3.5027,3.5105,3.5011,3.5098,3.5156,3.509,3.5205,3.5221,3.5267,3.5405,3.5467,3.5424,3.5688,3.5603,3.5617,3.5624,3.5702,3.5731,3.5756,3.5421,3.542,3.5418,0,0,3.5033,3.5057,3.516,3.519,3.5233,3.5232,3.5257,3.529,3.5297,3.5412,3.5364,3.5435,3.5559,3.5594,3.5629,3.5831,3.5792,3.5854,3.5965,3.6047,3.6071,3.6092,3.6165,3.6191,3.587,3.5871,3.5871,0,3.5128,3.5242,3.5218,3.5308,3.5346,3.5289,3.5394,3.5425,3.5489,3.5518,3.5469,3.5625,3.5652,3.5797,3.5847,3.5876,3.5906,3.5849,3.6069,3.609,3.6109,3.6178,3.6206,3.5878,3.5877,3.5876,3.5876,0,3.5357,3.5438,3.5516,3.5577,3.5625,3.5723,3.5715,3.5767,3.5745,3.575,3.5869,3.5899,3.5972,3.6006,3.5986,3.615,3.6122,3.6072,3.5984,3.6145,3.621,3.6236,3.5888,3.5886,3.5884,3.5882,0,0,3.5609,3.5657,3.5686,3.5714,3.5759,3.5822,3.5918,3.5988,3.6033,3.608,3.6161,3.6269,3.6223,3.6262,3.6246,3.6318,3.6478,3.6258,3.6259,3.6298,3.6661,3.6699,3.673,3.6452,3.6457,3.6461,3.6657,0,3.5797,3.5961,3.5943,3.6101,3.6176,3.6124,3.6208,3.6246,3.6254,3.632,3.6329,3.6406,3.6339,3.6362,3.6431,3.6443,3.655,3.6429,3.6529,3.6533,3.6518,3.6763,3.6803,3.6987,3.6683,3.6687,3.669,0,3.6037,3.6091,3.6256,3.6291,3.6322,3.6397,3.6461,3.6525,3.6568,3.6569,3.6613,3.6586,3.6685,3.6596,3.6734,3.6652,3.6693,3.6705,3.6712,3.672,3.662,3.6778,3.7045,3.7072,3.673,3.6726,3.6724,0,3.6204,3.6319,3.6433,3.6459,3.6502,3.6557,3.6578,3.6615,3.6659,3.6716,3.6744,3.6813,3.685,3.6905,3.6897,3.6833,3.7038,3.6948,3.7043,3.7043,3.7087,3.7085,3.7364,3.7114,3.7114,3.7113,3.7113,0,3.6415,3.6519,3.6509,3.6579,3.6694,3.6674,3.6789,3.6804,3.6838,3.6912,3.6872,3.6943,3.6928,3.7,3.6995,3.7111,3.7128,3.7133,3.713,3.7136,3.7135,3.7161,3.7148,3.7121,3.7119,3.7118,3.7116,0,3.6621,3.6618,3.6739,3.677,3.6781,3.6865,3.6892,3.696,3.6964,3.7058,3.708,3.7088,3.717,3.7168,3.7262,3.7258,3.74,3.7383,3.7385,3.7381,3.7476,3.7467,3.7781,3.7822,3.7546,3.7549,3.7551,0,3.6756,3.6834,3.6874,3.6919,3.6943,3.7018,3.7062,3.7047,3.7095,3.7151,3.7213,3.729,3.7352,3.7486,3.7501,3.7573,3.7558,3.7663,3.7568,3.7572,3.7559,3.7555,3.7563,3.7681,3.7684,3.7687,3.7689,0,3.6995,3.699,3.7054,3.7119,3.7173,3.7224,3.727,3.7311,3.7301,3.7358,3.744,3.7488,3.7583,3.7662,3.7731,3.7755,3.7722,3.7719,3.7744,3.7751,3.7749,3.7751,3.7435,3.7711,3.7709,3.7708,3.7706,3.7705,3.7169,3.7236,3.7275,3.7349,3.7382,3.7427,3.7492,3.7505,3.7573,3.7648,3.7636,3.7729,3.7773,3.7862,3.7893,3.7967,3.793,3.7967,3.7976,3.7985,3.7996,3.7738,3.7979,3.7979,3.7978,3.7978,3.7977,0,3.7406,3.7429,3.7497,3.7563,3.7622,3.7584,3.7634,3.7686,3.7768,3.7811,3.7872,3.7968,3.8044,3.8067,3.8141,3.8196,3.8183,3.8216,3.8212,3.8218,3.8024,3.7995,3.8226,3.8226,3.8226,3.8226,3.8226,3.8226,3.7536,3.7648,3.7649,3.7778,3.7801,3.789,3.7922,3.7964,3.7998,3.8107,3.8169,3.8183,3.8219,3.8296,3.8365,3.837,3.8399,3.8439,3.8438,3.8257,3.8232,3.8208,3.818,3.8446,3.8446,3.8625,3.8627,3.8628]},{"header":{"parameterUnit":"m.s-1","parameterCategory":1,"la1":30.2991,"la2":30.254,"lo1":-89.0895,"lo2":-89.0444,"dy":0.0017,"dx":0.0017,"nx":28,"ny":28,"refTime":"2024-05-15T09:00:00:Z","depth":0,"parameterNumber":3,"parameterNumberName":"V-component_of_WINDS"},"data":[0,0,0,0,0,0,0,0,0,0,0,0,0,0,0,0,0,0,0,0,0,0,0,0,0,0,0,0,0,0,0,0,0,0,0,0,0,0,0,0,0,0,0,0,0,0,0,0,0,0,0,0,0,0,0,0,0,0,-0.1505,-0.1504,0,-0.1435,-0.1434,-0.1433,-0.1422,-0.1423,-0.1423,-0.1424,-0.1348,-0.1345,-0.1343,0,0,0,0,0,0,0,0,0,0,0,0,0,-0.1624,-0.1621,-0.1505,-0.1504,-0.1503,-0.1435,-0.1434,-0.1433,-0.1422,-0.1423,-0.1423,-0.1424,-0.1349,-0.1345,-0.1342,0,0,0,0,0,0,0,0,0,0,0,0,0,-0.1564,-0.1621,-0.1505,-0.1489,-0.1487,-0.1435,-0.1434,-0.1433,-0.1422,-0.1423,-0.1423,-0.1424,-0.135,-0.1346,-0.1342,-0.1299,0,0,-0.133,-0.1328,0,0,0,0,0,0,0,0,-0.1568,-0.156,-0.1492,-0.149,-0.1488,-0.1438,-0.1448,-0.1388,-0.1421,-0.1446,-0.1424,-0.1425,-0.1377,-0.1371,-0.1355,-0.1295,-0.1292,-0.133,-0.1327,-0.1326,-0.1324,0,0,0,0,0,0,0,-0.1572,-0.1563,-0.1477,-0.1491,-0.1489,-0.1484,-0.1477,-0.1436,-0.1407,-0.1444,-0.1443,-0.1435,-0.1376,-0.1359,-0.1353,-0.1291,-0.133,-0.1326,-0.1324,-0.1322,-0.119,-0.1189,0,0,0,0,0,0,-0.158,-0.1567,-0.1479,-0.1475,-0.1531,-0.1481,-0.1473,-0.1453,-0.1407,-0.1401,-0.1435,-0.1435,-0.1365,-0.1358,-0.1351,-0.1296,-0.1326,-0.1322,-0.132,-0.1191,-0.119,-0.1189,0,0,0,0,0,0,-0.1582,-0.1572,-0.1482,-0.152,-0.1509,-0.1478,-0.1456,-0.1451,-0.1435,-0.14,-0.1394,-0.1424,-0.1366,-0.1356,-0.1312,-0.1293,-0.132,-0.1317,-0.1193,-0.1191,-0.1189,-0.1187,0,0,0,0,0,0,-0.1586,-0.1573,-0.1557,-0.152,-0.1507,-0.1446,-0.1455,-0.1449,-0.1428,-0.1428,-0.1388,-0.1382,-0.1366,-0.1318,-0.1308,-0.1288,-0.1313,-0.1194,-0.1192,-0.119,-0.1189,-0.1186,-0.1183,0,0,0,0,0,-0.159,-0.1559,-0.1557,-0.1546,-0.1487,-0.1445,-0.1437,-0.1419,-0.1427,-0.141,-0.1388,-0.1384,-0.1297,-0.1313,-0.1302,-0.1281,-0.1195,-0.1192,-0.119,-0.119,-0.1186,-0.1183,0,0,0,0,0,0,-0.1594,-0.1554,-0.1551,-0.1508,-0.148,-0.1443,-0.1421,-0.1416,-0.1384,-0.1385,-0.1364,-0.1355,-0.1311,-0.1292,-0.131,-0.1236,-0.1246,-0.1242,-0.125,-0.1246,-0.1244,-0.1249,-0.131,0,0,0,0,0,-0.159,-0.156,-0.1527,-0.1491,-0.1478,-0.1452,-0.1433,-0.1422,-0.1392,-0.1379,-0.1354,-0.1323,-0.1289,-0.1267,-0.1234,-0.1186,-0.1176,-0.1166,-0.1163,-0.1161,-0.1156,-0.1128,-0.1123,-0.118,-0.118,-0.118,0,0,-0.1581,-0.1555,-0.1538,-0.1491,-0.1469,-0.1437,-0.1442,-0.1408,-0.1384,-0.1374,-0.133,-0.131,-0.1275,-0.1228,-0.1207,-0.1211,-0.1139,-0.1158,-0.1156,-0.1153,-0.1125,-0.112,-0.1115,-0.1178,-0.1179,-0.1179,0,0,-0.1548,-0.1527,-0.1494,-0.1471,-0.1437,-0.142,-0.1412,-0.1376,-0.1363,-0.1319,-0.1311,-0.128,-0.1222,-0.1197,-0.1176,-0.1133,-0.1127,-0.1122,-0.1107,-0.1079,-0.1075,-0.1071,-0.1054,-0.1048,-0.1118,-0.1118,-0.1118,0,-0.1541,-0.1494,-0.1478,-0.1444,-0.1423,-0.1414,-0.138,-0.1358,-0.1314,-0.1299,-0.1305,-0.1231,-0.1206,-0.1153,-0.1142,-0.1127,-0.1115,-0.1126,-0.1077,-0.1073,-0.1069,-0.1052,-0.1046,-0.1118,-0.1118,-0.1118,-0.1118,0,-0.1486,-0.1453,-0.1431,-0.139,-0.1366,-0.1333,-0.131,-0.1288,-0.1279,-0.1261,-0.1215,-0.1185,-0.1145,-0.1132,-0.1122,-0.1077,-0.108,-0.1082,-0.1092,-0.1063,-0.1047,-0.1041,-0.1117,-0.1117,-0.1118,-0.1118,0,0,-0.1453,-0.1404,-0.1395,-0.1376,-0.1337,-0.1311,-0.1276,-0.1238,-0.1219,-0.1188,-0.1157,-0.1108,-0.1109,-0.1086,-0.1073,-0.1049,-0.1015,-0.1054,-0.1052,-0.1046,-0.096,-0.0958,-0.0952,-0.1011,-0.101,-0.1009,-0.0963,0,-0.1414,-0.1354,-0.1338,-0.1285,-0.1254,-0.1244,-0.1214,-0.1185,-0.1167,-0.1137,-0.1116,-0.1081,-0.1086,-0.1071,-0.1048,-0.1024,-0.0997,-0.1027,-0.098,-0.0979,-0.0988,-0.0943,-0.0941,-0.0899,-0.0957,-0.0956,-0.0955,0,-0.1361,-0.1331,-0.1276,-0.124,-0.1226,-0.1199,-0.1162,-0.1134,-0.1101,-0.1089,-0.1063,-0.1053,-0.1014,-0.1027,-0.0972,-0.0993,-0.0972,-0.0958,-0.0956,-0.0949,-0.0964,-0.0934,-0.0886,-0.0879,-0.0945,-0.0946,-0.0947,0,-0.1341,-0.1287,-0.1246,-0.123,-0.1188,-0.1168,-0.1149,-0.1118,-0.1095,-0.1063,-0.1048,-0.101,-0.099,-0.096,-0.0939,-0.0951,-0.0885,-0.0897,-0.0873,-0.0873,-0.0859,-0.086,-0.0804,-0.0848,-0.0848,-0.0848,-0.0848,0,-0.1299,-0.1265,-0.1236,-0.1211,-0.1172,-0.1154,-0.1115,-0.1096,-0.1067,-0.1037,-0.1026,-0.0997,-0.0972,-0.0939,-0.0922,-0.0878,-0.0869,-0.0857,-0.0853,-0.0858,-0.0859,-0.0843,-0.0845,-0.0846,-0.0847,-0.0847,-0.0847,0,-0.127,-0.1249,-0.1204,-0.1168,-0.1158,-0.113,-0.1098,-0.1073,-0.1054,-0.1016,-0.1005,-0.0976,-0.0937,-0.0913,-0.0864,-0.0852,-0.0803,-0.0801,-0.0815,-0.0812,-0.0789,-0.0791,-0.0721,-0.071,-0.0762,-0.0762,-0.0761,0,-0.1244,-0.1217,-0.1178,-0.1158,-0.1139,-0.1106,-0.1083,-0.1064,-0.104,-0.1,-0.0979,-0.0939,-0.0906,-0.0844,-0.0817,-0.0778,-0.0774,-0.0752,-0.0768,-0.0773,-0.0772,-0.0773,-0.0769,-0.0749,-0.0748,-0.0748,-0.0748,0,-0.1199,-0.119,-0.1159,-0.1123,-0.1097,-0.1067,-0.1038,-0.1022,-0.0996,-0.097,-0.0931,-0.0906,-0.0855,-0.0815,-0.0774,-0.0753,-0.0745,-0.0743,-0.0735,-0.0739,-0.0747,-0.0741,-0.0806,-0.0744,-0.0745,-0.0745,-0.0745,-0.0745,-0.1169,-0.1145,-0.1113,-0.1078,-0.1054,-0.1027,-0.1001,-0.0979,-0.0947,-0.0905,-0.0895,-0.0853,-0.0819,-0.0763,-0.0741,-0.0706,-0.071,-0.0699,-0.0696,-0.0693,-0.0691,-0.0754,-0.0699,-0.0699,-0.0699,-0.0699,-0.0699,0,-0.1122,-0.1102,-0.107,-0.103,-0.1001,-0.0999,-0.0966,-0.0942,-0.0906,-0.0876,-0.0844,-0.0797,-0.0758,-0.0728,-0.0688,-0.0666,-0.0661,-0.0656,-0.0657,-0.0651,-0.0692,-0.0702,-0.066,-0.066,-0.066,-0.066,-0.066,-0.066,-0.1095,-0.1053,-0.104,-0.0986,-0.0965,-0.0925,-0.0906,-0.088,-0.0856,-0.0805,-0.0773,-0.0754,-0.0723,-0.0681,-0.0644,-0.0636,-0.0621,-0.0616,-0.0607,-0.0645,-0.0649,-0.0653,-0.0662,-0.0613,-0.0613,-0.0569,-0.0569,-0.0569]}]]